[[{"header":{"parameterUnit":"m.s-1","parameterCategory":2,"la1":30.2992,"la2":30.254,"lo1":-89.0895,"lo2":-89.0443,"dy":0.0025,"dx":0.0025,"nx":19,"ny":19,"refTime":"2026-04-12T21:00:00:Z","depth":"0","parameterNumber":2,"parameterNumberName":"U-component_of_CURRENTS"},"data":[0,0,0,-0.1222,-0.1222,-0.1216,-0.1216,-0.1234,-0.1234,0,0,0,0,0,0,0,0,0,0,0,-0.1211,-0.121,-0.1222,-0.1222,-0.1216,-0.1216,-0.1234,-0.1234,0,0,0,0,0,0,0,0,0,0,0,-0.1211,-0.121,-0.121,-0.1222,-0.1216,-0.1216,-0.1234,-0.1232,0,0,0,0,0,0,0,0,0,0,-0.1235,-0.1219,-0.1211,-0.121,-0.1222,-0.1216,-0.1216,-0.1232,-0.1232,-0.1244,0,-0.1231,0,-0.124,-0.1236,-0.1236,0,0,0,-0.1222,-0.1218,-0.122,-0.121,-0.1222,-0.1216,-0.1219,-0.1232,-0.1232,-0.1245,-0.1231,-0.1232,-0.124,-0.1236,-0.1236,-0.1308,-0.1308,0,0,-0.1222,-0.121,-0.122,-0.122,-0.1205,-0.1219,-0.1218,-0.1232,-0.1224,-0.1232,-0.1233,-0.124,-0.1236,-0.1237,-0.1307,-0.1308,0,0,0,-0.1223,-0.121,-0.1211,-0.1219,-0.122,-0.1219,-0.1218,-0.1224,-0.1224,-0.1233,-0.124,-0.1237,-0.1237,-0.1307,-0.1307,-0.1264,0,0,0,-0.1223,-0.1211,-0.1211,-0.1204,-0.1219,-0.1218,-0.121,-0.1223,-0.1225,-0.124,-0.1237,-0.1237,-0.1306,-0.1307,-0.1263,-0.1034,0,0,0,-0.1214,-0.1211,-0.1206,-0.1204,-0.1203,-0.1218,-0.122,-0.1223,-0.123,-0.1236,-0.1237,-0.1305,-0.1307,-0.1263,-0.1042,-0.0904,0,0,0,-0.1209,-0.1149,-0.1205,-0.1162,-0.1203,-0.1219,-0.122,-0.1218,-0.1219,-0.1237,-0.1306,-0.1307,-0.1263,-0.1046,-0.091,-0.0879,-0.0849,0,0,-0.1122,-0.1138,-0.1118,-0.1168,-0.1195,-0.122,-0.1246,-0.1238,-0.1252,-0.1302,-0.1303,-0.1264,-0.1042,-0.0906,-0.0959,-0.0926,0,0,0,-0.1086,-0.1086,-0.1099,-0.1137,-0.1172,-0.1176,-0.1247,-0.1256,-0.1275,-0.1261,-0.1304,-0.1161,-0.1078,-0.1076,-0.1051,-0.1104,-0.1314,-0.1314,-0.1313,-0.0958,-0.1026,-0.1011,-0.1104,-0.1119,-0.1179,-0.1141,-0.1172,-0.1291,-0.13,-0.1167,-0.1056,-0.1067,-0.1044,-0.1106,-0.1324,-0.1324,-0.1324,-0.1324,-0.0868,-0.0855,-0.0945,-0.0958,-0.1009,-0.1035,-0.1038,-0.1084,-0.102,-0.1161,-0.109,-0.1078,-0.1013,-0.1089,-0.1322,-0.1322,-0.1322,-0.1323,-0.1323,-0.0797,-0.0786,-0.0823,-0.0846,-0.0817,-0.0873,-0.0743,-0.077,-0.0818,-0.0741,-0.0738,-0.074,-0.0754,-0.0763,-0.0762,-0.076,-0.0759,-0.0758,-0.0757,-0.0678,-0.0708,-0.0694,-0.0712,-0.069,-0.063,-0.0544,-0.0493,-0.0446,-0.0514,-0.0517,-0.0722,-0.088,-0.0841,-0.0733,-0.0738,-0.0741,-0.0743,-0.0745,-0.0571,-0.0584,-0.0555,-0.0542,-0.0511,-0.0426,-0.0373,-0.0245,-0.0164,-0.0111,-0.0362,-0.0428,-0.0375,-0.0401,-0.0351,-0.0119,-0.0119,-0.0119,-0.0119,-0.0475,-0.0488,-0.0425,-0.0379,-0.0339,-0.0319,-0.02,-0.0149,-0.0111,-0.0122,-0.0138,-0.0368,-0.0391,-0.0353,-0.0379,-0.0335,-0.0105,-0.0105,-0.0105,-0.0394,-0.0394,-0.0317,-0.0309,-0.0267,-0.0235,-0.0149,-0.0123,-0.0112,-0.0112,-0.0205,-0.0206,-0.0566,-0.0597,-0.0571,-0.0603,-0.0544,0,0]},{"header":{"parameterUnit":"m.s-1","parameterCategory":2,"la1":30.2992,"la2":30.254,"lo1":-89.0895,"lo2":-89.0443,"dy":0.0025,"dx":0.0025,"nx":19,"ny":19,"refTime":"2026-04-12T21:00:00:Z","depth":"0","parameterNumber":3,"parameterNumberName":"V-component_of_CURRENTS"},"data":[0,0,0,0.006,0.0061,0.0148,0.0149,0.0248,0.0249,0,0,0,0,0,0,0,0,0,0,0,0.0027,0.0028,0.006,0.0062,0.0148,0.0149,0.0248,0.0249,0,0,0,0,0,0,0,0,0,0,0,0.0027,0.0028,0.0028,0.0062,0.0148,0.0149,0.0248,0.0187,0,0,0,0,0,0,0,0,0,0,0.0105,0.0064,0.0028,0.0028,0.0062,0.0148,0.0149,0.0184,0.0191,0.0203,0,0.0212,0,0.023,0.0254,0.0255,0,0,0,0.0069,0.0059,0.0091,0.0028,0.0063,0.0148,0.0111,0.0188,0.0195,0.0211,0.0213,0.0217,0.0232,0.0255,0.0255,0.0253,0.0252,0,0,0.0064,0.0037,0.0086,0.0095,0.008,0.0108,0.0114,0.0192,0.0192,0.0214,0.022,0.0234,0.0255,0.0256,0.0253,0.0253,0,0,0,0.0045,0.0034,0.0064,0.0091,0.0107,0.0111,0.0117,0.0188,0.0201,0.0221,0.0235,0.0256,0.0257,0.0254,0.0253,0.0341,0,0,0,0.0043,0.0023,0.0062,0.0046,0.0105,0.0148,0.0111,0.0196,0.0205,0.0234,0.0256,0.0258,0.0255,0.0254,0.034,0.0421,0,0,0,0.0024,0.0021,0.0031,0.0044,0.008,0.0147,0.0164,0.0198,0.0213,0.0255,0.0258,0.0255,0.0254,0.034,0.0417,0.0487,0,0,0,-0.0005,-0.0015,0.003,0.0019,0.0079,0.0108,0.0164,0.0194,0.0223,0.0256,0.0255,0.0253,0.0339,0.0415,0.0484,0.0492,0.0507,0,0,-0.0038,-0.002,-0.0027,0.0015,0.0031,0.0097,0.0138,0.0206,0.0201,0.0232,0.0232,0.0341,0.0417,0.0486,0.04,0.0418,0,0,0,-0.0051,-0.006,-0.0051,-0.0026,0.002,0.0129,0.0164,0.0193,0.0241,0.0211,0.0283,0.0328,0.037,0.0366,0.0378,0.0339,0.0246,0.0246,0.0246,-0.0135,-0.0099,-0.0084,-0.0026,0.0024,0.0137,0.0226,0.0271,0.0234,0.0248,0.0356,0.0412,0.0402,0.0414,0.0371,0.0281,0.0281,0.0282,0.0282,-0.0187,-0.0158,-0.0073,-0.0053,0.0091,0.0162,0.0314,0.034,0.0439,0.0366,0.0402,0.0403,0.0434,0.0382,0.0287,0.0286,0.0285,0.0285,0.0284,-0.0236,-0.0197,-0.0186,-0.008,0.0101,0.0244,0.0417,0.0485,0.0526,0.0603,0.0574,0.0572,0.0571,0.0598,0.0599,0.0599,0.06,0.06,0.0601,-0.0269,-0.0236,-0.0196,-0.0076,0.0072,0.0251,0.0473,0.0556,0.0665,0.0691,0.069,0.0567,0.0509,0.0548,0.0611,0.0609,0.0608,0.0607,0.0606,-0.0295,-0.0298,-0.0208,-0.011,0.0194,0.0378,0.0518,0.0682,0.0772,0.0841,0.0743,0.0735,0.0724,0.071,0.0751,0.0863,0.0863,0.0863,0.0863,-0.0303,-0.0308,-0.0142,0.0058,0.0279,0.0473,0.0641,0.0758,0.0829,0.0845,0.0826,0.0727,0.0718,0.07,0.0686,0.0723,0.0826,0.0826,0.0825,-0.029,-0.0238,-0.0086,0.0091,0.0373,0.0544,0.0695,0.0753,0.0805,0.0819,0.0777,0.0778,0.0622,0.0612,0.0566,0.055,0.0604,0,0]}],[{"header":{"parameterUnit":"m.s-1","parameterCategory":2,"la1":30.2992,"la2":30.254,"lo1":-89.0895,"lo2":-89.0443,"dy":0.0025,"dx":0.0025,"nx":19,"ny":19,"refTime":"2026-04-12T21:00:00:Z","depth":"2","parameterNumber":2,"parameterNumberName":"U-component_of_CURRENTS"},"data":[0,0,0,-0.1072,-0.1072,-0.106,-0.106,-0.1053,-0.1053,0,0,0,0,0,0,0,0,0,0,0,-0.1067,-0.1067,-0.1072,-0.1072,-0.106,-0.106,-0.1053,-0.1053,0,0,0,0,0,0,0,0,0,0,0,-0.1068,-0.1067,-0.1067,-0.1072,-0.106,-0.106,-0.1053,-0.1061,0,0,0,0,0,0,0,0,0,0,-0.1071,-0.1065,-0.1067,-0.1067,-0.1072,-0.106,-0.106,-0.1061,-0.106,-0.1061,0,-0.1049,0,-0.1055,-0.1053,-0.1053,0,0,0,-0.1073,-0.1065,-0.1063,-0.1067,-0.1072,-0.106,-0.1066,-0.106,-0.106,-0.106,-0.1049,-0.1049,-0.1054,-0.1053,-0.1053,-0.1097,-0.1098,0,0,-0.1074,-0.1067,-0.1064,-0.1062,-0.1057,-0.1066,-0.1066,-0.106,-0.1053,-0.1049,-0.1049,-0.1054,-0.1053,-0.1053,-0.1097,-0.1097,0,0,0,-0.1075,-0.1067,-0.1065,-0.1062,-0.1061,-0.1066,-0.1065,-0.1054,-0.1052,-0.1049,-0.1054,-0.1053,-0.1053,-0.1096,-0.1097,-0.1109,0,0,0,-0.1076,-0.1068,-0.1065,-0.1061,-0.1061,-0.1057,-0.1059,-0.1053,-0.1053,-0.1054,-0.1053,-0.1053,-0.1096,-0.1097,-0.1107,-0.0878,0,0,0,-0.107,-0.1068,-0.1063,-0.1061,-0.1056,-0.1057,-0.1056,-0.1053,-0.1056,-0.1053,-0.1053,-0.1095,-0.1096,-0.1106,-0.0883,-0.0796,0,0,0,-0.1069,-0.1014,-0.1062,-0.1023,-0.1056,-0.106,-0.1056,-0.1044,-0.1038,-0.1053,-0.1096,-0.1097,-0.1105,-0.0887,-0.08,-0.0864,-0.0849,0,0,-0.0992,-0.1005,-0.0987,-0.1029,-0.1036,-0.1062,-0.1092,-0.1073,-0.1065,-0.1097,-0.1098,-0.1108,-0.0884,-0.0797,-0.0937,-0.0919,0,0,0,-0.0958,-0.0958,-0.0964,-0.0991,-0.1013,-0.102,-0.1085,-0.1097,-0.1113,-0.1069,-0.113,-0.0983,-0.093,-0.0982,-0.0969,-0.1103,-0.1103,-0.1103,-0.1102,-0.0841,-0.0899,-0.0882,-0.0965,-0.0973,-0.1026,-0.1003,-0.1037,-0.1138,-0.1154,-0.1022,-0.0964,-0.1032,-0.1019,-0.1177,-0.1177,-0.1177,-0.1178,-0.1178,-0.076,-0.075,-0.0829,-0.0835,-0.0879,-0.0908,-0.0931,-0.0982,-0.0942,-0.1048,-0.1006,-0.1022,-0.1004,-0.1179,-0.1179,-0.1178,-0.1178,-0.1178,-0.1178,-0.0699,-0.069,-0.0724,-0.0739,-0.0702,-0.0758,-0.0668,-0.0707,-0.0772,-0.0718,-0.078,-0.0781,-0.0831,-0.0764,-0.0763,-0.0762,-0.076,-0.076,-0.0759,-0.0593,-0.0623,-0.0604,-0.0611,-0.0575,-0.053,-0.0473,-0.0484,-0.0523,-0.0602,-0.0607,-0.0818,-0.0832,-0.0802,-0.0739,-0.0742,-0.0745,-0.0747,-0.0748,-0.0499,-0.051,-0.0472,-0.0445,-0.0388,-0.0309,-0.0306,-0.0341,-0.0334,-0.0362,-0.0582,-0.0593,-0.0531,-0.0546,-0.0508,-0.037,-0.037,-0.037,-0.037,-0.0409,-0.0421,-0.0339,-0.0267,-0.021,-0.0191,-0.0178,-0.0303,-0.0387,-0.0429,-0.0426,-0.0644,-0.0659,-0.0614,-0.0628,-0.0596,-0.0479,-0.0479,-0.0479,-0.033,-0.0323,-0.0229,-0.0196,-0.0112,-0.0107,-0.0106,-0.0222,-0.0376,-0.0482,-0.043,-0.038,-0.0708,-0.0727,-0.067,-0.0688,-0.064,0,0]},{"header":{"parameterUnit":"m.s-1","parameterCategory":2,"la1":30.2992,"la2":30.254,"lo1":-89.0895,"lo2":-89.0443,"dy":0.0025,"dx":0.0025,"nx":19,"ny":19,"refTime":"2026-04-12T21:00:00:Z","depth":"2","parameterNumber":3,"parameterNumberName":"V-component_of_CURRENTS"},"data":[0,0,0,-0.004,-0.0039,0.0059,0.006,0.0149,0.0149,0,0,0,0,0,0,0,0,0,0,0,-0.0078,-0.0077,-0.0041,-0.0038,0.0059,0.006,0.0149,0.0149,0,0,0,0,0,0,0,0,0,0,0,-0.0078,-0.0077,-0.0077,-0.0038,0.0059,0.006,0.0149,0.0085,0,0,0,0,0,0,0,0,0,0,-0.0005,-0.0045,-0.0078,-0.0077,-0.0038,0.0059,0.006,0.0083,0.0089,0.0093,0,0.0104,0,0.0128,0.0154,0.0154,0,0,0,-0.0033,-0.005,-0.0016,-0.0077,-0.0037,0.0059,0.0017,0.0087,0.0094,0.0101,0.0106,0.011,0.0129,0.0155,0.0155,0.0176,0.0176,0,0,-0.0038,-0.0067,-0.0021,-0.0011,-0.0016,0.0014,0.002,0.0091,0.0091,0.0106,0.0112,0.0131,0.0155,0.0156,0.0177,0.0176,0,0,0,-0.0057,-0.0071,-0.0037,-0.0015,0.0005,0.0016,0.0023,0.0088,0.0101,0.0113,0.0132,0.0155,0.0156,0.0177,0.0176,0.0199,0,0,0,-0.006,-0.0082,-0.0039,-0.0056,0.0003,0.005,0.0017,0.0096,0.0105,0.0131,0.0155,0.0157,0.0177,0.0177,0.0199,0.0172,0,0,0,-0.0081,-0.0084,-0.0072,-0.0058,-0.0016,0.005,0.0068,0.0099,0.0116,0.0154,0.0157,0.0177,0.0177,0.0199,0.0173,0.0081,0,0,0,-0.0114,-0.0113,-0.0073,-0.0068,-0.0017,0.0028,0.0068,0.0105,0.0134,0.0156,0.0177,0.0176,0.0199,0.0173,0.0083,0.0065,0.0054,0,0,-0.0133,-0.0116,-0.0113,-0.0075,-0.0053,0.0016,0.005,0.0106,0.0123,0.0153,0.0154,0.0199,0.0173,0.0081,0.0026,0.0016,0,0,0,-0.0132,-0.0138,-0.0123,-0.01,-0.0045,0.0005,0.0068,0.0105,0.015,0.0138,0.0179,0.016,0.0102,0.0096,0.0088,0.0173,0.0173,0.0173,0.0173,-0.021,-0.0175,-0.0167,-0.0122,-0.0084,0.0001,0.0056,0.0111,0.0138,0.0155,0.0166,0.009,0.0087,0.008,0.017,0.017,0.017,0.017,0.017,-0.0257,-0.0244,-0.0198,-0.0181,-0.0109,-0.0058,0.005,0.0094,0.0121,0.0162,0.0104,0.0105,0.0072,0.0171,0.0171,0.0171,0.0171,0.0171,0.0171,-0.0309,-0.0289,-0.0282,-0.0232,-0.0158,-0.0064,0.0008,0.0059,0.009,0.0088,-0.0006,-0.0006,0.0065,0.0024,0.0023,0.0023,0.0023,0.0022,0.0022,-0.035,-0.0334,-0.0318,-0.0267,-0.0191,-0.0138,-0.0034,-0.0046,-0.0089,-0.0029,-0.0029,0.0038,0.0043,0.0053,0.0014,0.0015,0.0016,0.0017,0.0018,-0.0386,-0.0389,-0.0341,-0.0295,-0.0199,-0.0168,-0.0101,-0.0169,-0.0221,-0.0287,-0.0102,-0.0096,-0.0131,-0.0124,-0.012,-0.0202,-0.0202,-0.0202,-0.0202,-0.0408,-0.0412,-0.032,-0.0253,-0.0206,-0.0189,-0.0231,-0.0287,-0.031,-0.0232,-0.023,-0.0157,-0.0148,-0.018,-0.0171,-0.0166,-0.0261,-0.0261,-0.0261,-0.0418,-0.0384,-0.0306,-0.0266,-0.0179,-0.0258,-0.0273,-0.034,-0.0301,-0.0262,-0.0226,-0.0209,-0.0092,-0.0081,-0.0121,-0.0111,-0.01,0,0]}],[{"header":{"parameterUnit":"m.s-1","parameterCategory":2,"la1":30.2992,"la2":30.254,"lo1":-89.0895,"lo2":-89.0443,"dy":0.0025,"dx":0.0025,"nx":19,"ny":19,"refTime":"2026-04-12T21:00:00:Z","depth":"4","parameterNumber":2,"parameterNumberName":"U-component_of_CURRENTS"},"data":[0,0,0,-0.0642,-0.0645,-0.0766,-0.0766,-0.0644,-0.0642,0,0,0,0,0,0,0,0,0,0,0,-0.0596,-0.0597,-0.0641,-0.0645,-0.0766,-0.0766,-0.0644,-0.0642,0,0,0,0,0,0,0,0,0,0,0,-0.0595,-0.0597,-0.0598,-0.0646,-0.0766,-0.0766,-0.0644,-0.0616,0,0,0,0,0,0,0,0,0,0,-0.053,-0.0516,-0.0596,-0.0599,-0.0647,-0.0766,-0.0766,-0.0617,-0.0617,-0.0518,0,-0.0564,0,-0.0607,-0.063,-0.0629,0,0,0,-0.0619,-0.0517,-0.0576,-0.0599,-0.0648,-0.0766,-0.0704,-0.0619,-0.0619,-0.0517,-0.0563,-0.0561,-0.0605,-0.0629,-0.0628,-0.047,-0.0469,0,0,-0.0613,-0.0578,-0.0577,-0.0577,-0.0709,-0.0701,-0.0708,-0.0622,-0.0611,-0.0563,-0.0559,-0.0603,-0.0628,-0.0626,-0.047,-0.047,0,0,0,-0.0611,-0.0573,-0.0639,-0.0579,-0.0628,-0.0705,-0.0714,-0.0615,-0.0646,-0.0559,-0.0602,-0.0627,-0.0624,-0.047,-0.047,-0.0638,0,0,0,-0.0606,-0.0575,-0.0636,-0.061,-0.0633,-0.0656,-0.0707,-0.0652,-0.0645,-0.0602,-0.0627,-0.0623,-0.0471,-0.047,-0.0635,-0.0613,0,0,0,-0.0585,-0.0571,-0.0602,-0.0609,-0.0678,-0.066,-0.0686,-0.0653,-0.067,-0.0629,-0.0622,-0.0471,-0.047,-0.0631,-0.0609,-0.0603,0,0,0,-0.0519,-0.058,-0.0601,-0.0664,-0.0678,-0.073,-0.0688,-0.0692,-0.0663,-0.0626,-0.0471,-0.047,-0.063,-0.0607,-0.0601,-0.0477,0,0,0,-0.0563,-0.0584,-0.0622,-0.0646,-0.0706,-0.071,-0.0733,-0.0679,-0.0606,-0.0475,-0.0474,-0.0636,-0.0609,-0.0602,-0.0423,0,0,0,0,-0.0614,-0.0643,-0.0663,-0.0705,-0.0737,-0.0738,-0.0717,-0.0707,-0.0654,-0.0593,-0.057,-0.0543,-0.0537,-0.0456,-0.0466,-0.0466,-0.0466,-0.0466,-0.0466,-0.0614,-0.0649,-0.0673,-0.071,-0.0725,-0.0744,-0.0755,-0.0713,-0.0669,-0.0672,-0.0638,-0.0671,-0.0593,-0.0633,-0.0634,-0.0635,-0.0635,-0.0636,-0.0636,-0.0635,-0.063,-0.0649,-0.0684,-0.0689,-0.0691,-0.0733,-0.076,-0.0747,-0.0711,-0.07,-0.0584,-0.0651,-0.0648,-0.0646,-0.0644,-0.0643,-0.0642,-0.0641,-0.0588,-0.058,-0.061,-0.0614,-0.0622,-0.0655,-0.0686,-0.0757,-0.0791,-0.0825,-0.0665,-0.0716,-0.0749,-0.0822,-0.0822,-0.0822,-0.0822,-0.0822,-0.0822,-0.0502,-0.053,-0.0523,-0.0541,-0.0541,-0.0572,-0.0658,-0.0687,-0.0751,-0.0732,-0.082,-0.073,-0.0724,-0.0752,-0.082,-0.0821,-0.0821,-0.0821,-0.0821,-0.0435,-0.0448,-0.0436,-0.0441,-0.0459,-0.0485,-0.0583,-0.0609,-0.0625,-0.0617,-0.0682,-0.0689,-0.0582,-0.0578,-0.0598,-0.0623,-0.0622,-0.062,0,-0.037,-0.038,-0.0363,-0.0365,-0.0368,-0.0443,-0.0454,-0.0495,-0.0543,-0.0527,-0.0629,-0.0701,-0.0706,-0.0584,-0.0578,-0.0599,0,0,0,-0.0315,-0.0321,-0.0291,-0.0308,-0.0326,-0.0379,-0.0451,-0.0438,-0.0547,-0.0513,-0.0585,-0.0594,-0.0717,-0.0817,-0.0666,-0.0659,-0.0694,0,0]},{"header":{"parameterUnit":"m.s-1","parameterCategory":2,"la1":30.2992,"la2":30.254,"lo1":-89.0895,"lo2":-89.0443,"dy":0.0025,"dx":0.0025,"nx":19,"ny":19,"refTime":"2026-04-12T21:00:00:Z","depth":"4","parameterNumber":3,"parameterNumberName":"V-component_of_CURRENTS"},"data":[0,0,0,-0.0105,-0.0103,0.0025,0.0026,0.0105,0.0105,0,0,0,0,0,0,0,0,0,0,0,-0.015,-0.0149,-0.0106,-0.0102,0.0025,0.0026,0.0105,0.0105,0,0,0,0,0,0,0,0,0,0,0,-0.0151,-0.015,-0.0148,-0.0102,0.0025,0.0026,0.0105,0.0029,0,0,0,0,0,0,0,0,0,0,-0.0085,-0.0129,-0.015,-0.0148,-0.0101,0.0025,0.0026,0.0026,0.0034,0.0023,0,0.005,0,0.0079,0.0109,0.0109,0,0,0,-0.0104,-0.0135,-0.0085,-0.0148,-0.01,0.0025,-0.0033,0.0031,0.0039,0.0033,0.0051,0.0055,0.0081,0.0109,0.011,0.0258,0.026,0,0,-0.0111,-0.0145,-0.009,-0.0079,-0.0059,-0.0037,-0.0029,0.0037,0.0037,0.0052,0.0058,0.0082,0.011,0.011,0.0257,0.0259,0,0,0,-0.013,-0.015,-0.01,-0.0083,-0.0053,-0.0033,-0.0024,0.0034,0.0056,0.0059,0.0083,0.011,0.0111,0.0256,0.0258,0.0129,0,0,0,-0.0135,-0.016,-0.0103,-0.0124,-0.0054,-0.0,-0.0029,0.0051,0.006,0.0082,0.011,0.0111,0.0255,0.0257,0.013,0.0017,0,0,0,-0.0158,-0.0163,-0.0142,-0.0126,-0.0067,0.0,0.0026,0.0054,0.0074,0.0109,0.0111,0.0254,0.0256,0.013,0.0022,0.0042,0,0,0,-0.0205,-0.0171,-0.0143,-0.0106,-0.0068,0.0026,0.0026,0.0082,0.0114,0.011,0.0255,0.0258,0.013,0.0024,0.0044,0.0029,0,0,0,-0.0188,-0.0171,-0.0148,-0.0119,-0.0067,0.0008,0.0046,0.0078,0.016,0.0223,0.0227,0.013,0.0022,0.0042,0.0207,0,0,0,0,-0.016,-0.0155,-0.0127,-0.0098,-0.0017,-0.0012,0.0066,0.0119,0.019,0.0196,0.0227,0.0164,0.0179,0.0184,0.0272,0.0272,0.0271,0.0271,0.0271,-0.0201,-0.017,-0.0153,-0.0121,-0.0079,-0.0011,0.0006,0.0098,0.0185,0.023,0.0132,0.0152,0.0161,0.0251,0.025,0.025,0.0249,0.0249,0.0249,-0.0216,-0.0214,-0.0209,-0.0185,-0.0173,-0.0142,-0.0068,-0.0021,0.0047,0.0133,0.0158,0.0139,0.0239,0.0241,0.0242,0.0243,0.0244,0.0245,0.0245,-0.0261,-0.0256,-0.0254,-0.0254,-0.0275,-0.0236,-0.0227,-0.0159,-0.0074,-0.0094,0.002,0.0088,0.0015,-0.0024,-0.0025,-0.0025,-0.0026,-0.0026,-0.0026,-0.0299,-0.0297,-0.0312,-0.0315,-0.0329,-0.0327,-0.029,-0.0253,-0.0175,-0.0139,-0.0101,0.0061,0.0069,0.0005,-0.0032,-0.0031,-0.003,-0.003,-0.0029,-0.033,-0.0326,-0.0354,-0.0367,-0.0387,-0.0379,-0.0338,-0.0274,-0.0239,-0.0211,-0.0124,-0.0117,-0.0073,-0.0061,-0.0129,-0.0208,-0.0208,-0.0209,0,-0.035,-0.0349,-0.0393,-0.0425,-0.044,-0.0414,-0.0377,-0.033,-0.0264,-0.0274,-0.0244,-0.0149,-0.0143,-0.0093,-0.0082,-0.0162,0,0,0,-0.0366,-0.0378,-0.0421,-0.045,-0.0474,-0.0415,-0.037,-0.0352,-0.0276,-0.0241,-0.0219,-0.0216,-0.0084,-0.0049,0.0035,0.0045,-0.0054,0,0]}]]